[[{"header":{"parameterUnit":"m.s-1","parameterCategory":2,"la1":30.2991,"la2":30.254,"lo1":-89.0895,"lo2":-89.0444,"dy":0.0017,"dx":0.0017,"nx":28,"ny":28,"refTime":"2025-04-18T09:00:00:Z","depth":"0","parameterNumber":2,"parameterNumberName":"U-component_of_CURRENTS"},"data":[0,0,0,0,0,0,0,0,0,0,0,0,0,0,0,0,0,0,0,0,0,0,0,0,0,0,0,0,0,0,0,0,0,0,0,0,0,0,0,0,0,0,0,0,0,0,0,0,0,0,0,0,0,0,0,0,0,0,0.2677,0.2677,0,0.2699,0.27,0.27,0.2696,0.2695,0.2695,0.2695,0.2695,0.2695,0.2696,0,0,0,0,0,0,0,0,0,0,0,0,0,0.2646,0.2646,0.2676,0.2677,0.2677,0.2699,0.27,0.27,0.2696,0.2695,0.2695,0.2695,0.2695,0.2695,0.2696,0,0,0,0,0,0,0,0,0,0,0,0,0,0.2662,0.2646,0.2676,0.2679,0.2679,0.2699,0.27,0.27,0.2696,0.2695,0.2695,0.2694,0.2695,0.2695,0.2696,0.2707,0,0,0.2697,0.2697,0,0,0,0,0,0,0,0,0.2661,0.2663,0.2678,0.2679,0.2679,0.2695,0.2689,0.2702,0.2696,0.2688,0.2695,0.2694,0.2694,0.2695,0.2698,0.2707,0.2707,0.2697,0.2697,0.2697,0.2698,0,0,0,0,0,0,0,0.266,0.2662,0.2684,0.2679,0.2679,0.2685,0.2686,0.2691,0.2692,0.2689,0.2689,0.2694,0.2694,0.2698,0.2698,0.2707,0.2697,0.2697,0.2698,0.2698,0.2753,0.2754,0,0,0,0,0,0,0.2659,0.2661,0.2684,0.2685,0.267,0.2686,0.2687,0.269,0.2692,0.2693,0.2694,0.2693,0.2698,0.2698,0.2698,0.273,0.2697,0.2698,0.2698,0.2752,0.2754,0.2755,0,0,0,0,0,0,0.2658,0.2661,0.2683,0.2675,0.2678,0.2687,0.2689,0.269,0.2697,0.2697,0.2697,0.27,0.2697,0.2698,0.2713,0.2729,0.2698,0.2698,0.2751,0.2753,0.2754,0.2781,0,0,0,0,0,0,0.2657,0.266,0.2663,0.2674,0.2678,0.2698,0.269,0.2691,0.2701,0.2701,0.2702,0.2701,0.2697,0.2712,0.2713,0.2729,0.2699,0.2749,0.2751,0.2754,0.2778,0.2783,0.2787,0,0,0,0,0,0.2656,0.2663,0.2663,0.2666,0.2681,0.2699,0.2701,0.2705,0.2702,0.2708,0.2713,0.2702,0.2727,0.2713,0.2714,0.273,0.2748,0.2751,0.2753,0.2776,0.2782,0.2787,0,0,0,0,0,0,0.265,0.2663,0.2664,0.2673,0.2686,0.2698,0.2706,0.2709,0.2719,0.2719,0.2714,0.2715,0.2736,0.2733,0.2717,0.2755,0.2737,0.274,0.2754,0.276,0.2764,0.2783,0.2699,0,0,0,0,0,0.2651,0.2658,0.2672,0.268,0.2687,0.2698,0.2705,0.2711,0.2721,0.2724,0.2725,0.2733,0.2749,0.2752,0.2763,0.278,0.2823,0.2793,0.2798,0.2802,0.2819,0.2906,0.2921,0.2764,0.2764,0.2764,0,0,0.2651,0.2659,0.2663,0.268,0.2689,0.2706,0.2701,0.2718,0.2734,0.2723,0.2742,0.2749,0.2759,0.2781,0.279,0.2778,0.2871,0.2805,0.2808,0.2824,0.2911,0.2926,0.294,0.2766,0.2765,0.2765,0,0,0.2658,0.2663,0.2673,0.2687,0.2706,0.2716,0.2722,0.2738,0.2746,0.2766,0.2769,0.279,0.2799,0.2817,0.2826,0.2865,0.2895,0.2864,0.2897,0.2981,0.2995,0.3008,0.3091,0.3111,0.2862,0.2862,0.2863,0,0.2658,0.2673,0.2679,0.2697,0.2717,0.2721,0.2746,0.2755,0.2773,0.2802,0.2775,0.2835,0.2822,0.2881,0.2881,0.2875,0.2933,0.2871,0.2989,0.3002,0.3015,0.3096,0.3118,0.2864,0.2864,0.2864,0.2864,0,0.2673,0.269,0.2699,0.2723,0.2746,0.2766,0.2787,0.2809,0.2816,0.2838,0.2895,0.2889,0.2936,0.2922,0.2903,0.2989,0.3005,0.2988,0.2975,0.3033,0.3114,0.3137,0.2866,0.2866,0.2865,0.2865,0,0,0.2662,0.2702,0.2705,0.2729,0.2765,0.2787,0.2827,0.2879,0.2931,0.2934,0.3015,0.3008,0.3026,0.3039,0.303,0.3071,0.3184,0.3062,0.3065,0.3145,0.3389,0.3326,0.3344,0.3195,0.3199,0.3202,0.3412,0,0.2673,0.2715,0.2735,0.278,0.2809,0.2843,0.2885,0.2936,0.2981,0.3055,0.3074,0.3135,0.3066,0.3099,0.3134,0.319,0.3243,0.3129,0.332,0.3326,0.3265,0.3368,0.3217,0.3385,0.3434,0.3438,0.344,0,0.2676,0.2713,0.2759,0.283,0.2847,0.2872,0.2975,0.3016,0.3122,0.3166,0.3241,0.3273,0.3351,0.3272,0.3409,0.3348,0.3372,0.3391,0.34,0.335,0.3305,0.3335,0.3424,0.3366,0.3475,0.3472,0.3469,0,0.2667,0.2727,0.2767,0.2788,0.2865,0.2902,0.2949,0.3052,0.3118,0.3255,0.3336,0.3433,0.3503,0.3559,0.3582,0.3526,0.3732,0.3668,0.3638,0.3635,0.3547,0.3528,0.3601,0.3767,0.3767,0.3766,0.3766,0,0.2666,0.2698,0.2762,0.2783,0.2849,0.2908,0.2999,0.3068,0.32,0.3301,0.3392,0.3496,0.3577,0.3688,0.3684,0.3751,0.3831,0.3682,0.3697,0.355,0.353,0.3505,0.3481,0.3774,0.3772,0.3771,0.377,0,0.264,0.2675,0.2728,0.2813,0.2838,0.2887,0.3006,0.3082,0.3213,0.3361,0.3415,0.3597,0.3746,0.3818,0.394,0.3889,0.3853,0.3936,0.3754,0.3741,0.3611,0.3594,0.3544,0.3456,0.396,0.396,0.396,0,0.2629,0.2652,0.2736,0.2769,0.28,0.2881,0.2938,0.3066,0.3153,0.3404,0.3472,0.3685,0.3797,0.3981,0.3955,0.4004,0.3877,0.3874,0.3709,0.3621,0.3615,0.3439,0.3355,0.3621,0.3618,0.3615,0.3613,0,0.2634,0.2657,0.2709,0.2764,0.2813,0.2876,0.2966,0.3032,0.3198,0.3337,0.352,0.3642,0.3819,0.3822,0.3893,0.3872,0.3701,0.3824,0.3793,0.3416,0.3173,0.3088,0.3473,0.3592,0.3595,0.3596,0.3597,0.3598,0.265,0.2671,0.2729,0.2774,0.282,0.2857,0.2898,0.2996,0.3119,0.3295,0.3459,0.3576,0.3678,0.3749,0.3721,0.3591,0.3555,0.3471,0.3484,0.3334,0.315,0.3485,0.3566,0.3568,0.3569,0.3571,0.3572,0,0.2674,0.2694,0.2738,0.2785,0.2807,0.2836,0.2909,0.2932,0.3024,0.317,0.3313,0.3391,0.3417,0.3448,0.3392,0.3278,0.3086,0.3211,0.2948,0.2903,0.3279,0.3163,0.3085,0.3085,0.3085,0.3085,0.3085,0.3085,0.2699,0.273,0.2731,0.2759,0.2779,0.2787,0.2807,0.283,0.289,0.2942,0.2967,0.3063,0.3211,0.3297,0.3191,0.3093,0.2885,0.2737,0.2771,0.3068,0.3092,0.3115,0.3001,0.289,0.2889,0.2225,0.2221,0.2218]},{"header":{"parameterUnit":"m.s-1","parameterCategory":2,"la1":30.2991,"la2":30.254,"lo1":-89.0895,"lo2":-89.0444,"dy":0.0017,"dx":0.0017,"nx":28,"ny":28,"refTime":"2025-04-18T09:00:00:Z","depth":"0","parameterNumber":3,"parameterNumberName":"V-component_of_CURRENTS"},"data":[0,0,0,0,0,0,0,0,0,0,0,0,0,0,0,0,0,0,0,0,0,0,0,0,0,0,0,0,0,0,0,0,0,0,0,0,0,0,0,0,0,0,0,0,0,0,0,0,0,0,0,0,0,0,0,0,0,0,0.0304,0.0304,0,0.0281,0.0281,0.0281,0.0256,0.0255,0.0255,0.0255,0.0185,0.0184,0.0182,0,0,0,0,0,0,0,0,0,0,0,0,0,0.0282,0.0282,0.0304,0.0304,0.0304,0.0281,0.0281,0.0281,0.0256,0.0255,0.0255,0.0255,0.0186,0.0184,0.0182,0,0,0,0,0,0,0,0,0,0,0,0,0,0.0278,0.0283,0.0304,0.0289,0.0288,0.0282,0.0281,0.0281,0.0256,0.0255,0.0255,0.0254,0.0186,0.0184,0.0182,0.0176,0,0,0.0174,0.0173,0,0,0,0,0,0,0,0,0.0278,0.0279,0.0292,0.029,0.0288,0.0272,0.0248,0.0243,0.0256,0.0267,0.0255,0.0254,0.0211,0.0206,0.0202,0.0172,0.0169,0.0174,0.0173,0.0172,0.0171,0,0,0,0,0,0,0,0.0278,0.0279,0.0294,0.0291,0.0289,0.0269,0.0268,0.0247,0.024,0.0266,0.0264,0.0263,0.0209,0.0205,0.02,0.0168,0.0174,0.0172,0.0171,0.017,0.0133,0.0134,0,0,0,0,0,0,0.0286,0.028,0.0295,0.0294,0.0283,0.027,0.0269,0.0277,0.0241,0.0236,0.0264,0.0262,0.0209,0.0203,0.0198,0.0206,0.0172,0.0169,0.0168,0.0133,0.0133,0.0134,0,0,0,0,0,0,0.0286,0.0288,0.0296,0.0286,0.0286,0.0271,0.028,0.0277,0.0275,0.024,0.0234,0.0266,0.0208,0.0201,0.019,0.0202,0.0168,0.0166,0.0132,0.0133,0.0133,0.021,0,0,0,0,0,0,0.0285,0.0288,0.0294,0.0287,0.0287,0.0303,0.028,0.0276,0.0276,0.0273,0.024,0.0233,0.0208,0.0194,0.0188,0.0198,0.0164,0.0132,0.0132,0.0133,0.0207,0.0214,0.0219,0,0,0,0,0,0.0285,0.03,0.0295,0.0296,0.0296,0.0303,0.0302,0.0288,0.0276,0.0283,0.0262,0.0234,0.0195,0.0193,0.0186,0.0195,0.0131,0.0132,0.0133,0.0205,0.0212,0.0219,0,0,0,0,0,0,0.0292,0.0298,0.0293,0.0308,0.0309,0.03,0.0302,0.0294,0.0283,0.0277,0.0243,0.0236,0.0228,0.0201,0.02,0.0186,0.0157,0.0156,0.0214,0.022,0.0226,0.024,0.0162,0,0,0,0,0,0.0297,0.031,0.0311,0.0322,0.0325,0.0314,0.0313,0.0307,0.0297,0.0292,0.027,0.0244,0.0226,0.0217,0.0194,0.019,0.0167,0.0189,0.0195,0.02,0.0206,0.0186,0.0191,0.0137,0.0137,0.0137,0,0,0.0302,0.0307,0.0314,0.0324,0.0321,0.0338,0.0313,0.0319,0.0332,0.0285,0.0292,0.0263,0.0229,0.0226,0.022,0.0206,0.0205,0.0201,0.0206,0.0209,0.0188,0.0193,0.0198,0.0138,0.0138,0.0138,0,0,0.0325,0.0325,0.0345,0.0353,0.0357,0.0354,0.036,0.0356,0.0353,0.0355,0.0325,0.0308,0.0281,0.0264,0.025,0.0274,0.0236,0.0263,0.0305,0.0287,0.0291,0.0295,0.0283,0.0285,0.0267,0.0267,0.0267,0,0.033,0.036,0.0351,0.0375,0.0389,0.0367,0.0397,0.0392,0.0385,0.0393,0.0366,0.0336,0.03,0.0305,0.0307,0.0288,0.0273,0.0284,0.0296,0.0299,0.0301,0.0288,0.0289,0.0271,0.027,0.027,0.027,0,0.0372,0.0395,0.0408,0.0435,0.0447,0.0468,0.0467,0.0474,0.0462,0.0458,0.0457,0.0409,0.0393,0.0375,0.0345,0.0349,0.0333,0.0307,0.0282,0.0312,0.0295,0.0295,0.0276,0.0275,0.0274,0.0273,0,0,0.039,0.0432,0.0437,0.0471,0.0484,0.0508,0.0527,0.0551,0.0587,0.0547,0.0586,0.0526,0.0497,0.0478,0.0437,0.0412,0.0408,0.0369,0.0367,0.0365,0.0375,0.0352,0.0349,0.0386,0.0387,0.0387,0.0361,0,0.0429,0.0496,0.05,0.0566,0.0607,0.0601,0.0635,0.0649,0.0651,0.0681,0.0621,0.0638,0.0538,0.0546,0.0496,0.0447,0.041,0.0418,0.034,0.0337,0.032,0.0349,0.0348,0.0324,0.036,0.036,0.036,0,0.0471,0.0519,0.059,0.0663,0.068,0.071,0.0776,0.0806,0.0825,0.0831,0.081,0.0773,0.0735,0.065,0.0544,0.0557,0.0464,0.0406,0.0404,0.0355,0.0314,0.0297,0.0321,0.0193,0.0359,0.0359,0.036,0,0.0511,0.0583,0.0649,0.0672,0.0742,0.0775,0.0813,0.0851,0.0914,0.0938,0.0994,0.0909,0.0916,0.0775,0.0627,0.0595,0.0519,0.0461,0.0347,0.0344,0.0313,0.0308,0.021,0.0373,0.0373,0.0374,0.0374,0,0.056,0.0615,0.0677,0.0718,0.0818,0.0841,0.0947,0.0974,0.1048,0.1159,0.1079,0.1149,0.0949,0.0877,0.0694,0.0533,0.0562,0.0363,0.0338,0.034,0.0338,0.0199,0.0112,0.0373,0.0373,0.0373,0.0373,0,0.0598,0.0629,0.0721,0.0806,0.0839,0.0917,0.1047,0.1142,0.1194,0.134,0.1365,0.1349,0.1261,0.1047,0.0854,0.0659,0.0397,0.0413,0.0431,0.0408,0.0161,0.0079,-0.0071,-0.015,0.0283,0.0283,0.0282,0,0.0625,0.0675,0.0789,0.0862,0.0903,0.1021,0.112,0.1203,0.1323,0.1477,0.1569,0.1537,0.1536,0.1237,0.0887,0.0572,0.0402,0.0364,0.0281,0.0157,0.0047,-0.0021,-0.0082,0.0274,0.0273,0.0273,0.0272,0,0.0698,0.0731,0.0814,0.0952,0.1062,0.1204,0.1349,0.1467,0.1604,0.1742,0.1905,0.1919,0.1638,0.1335,0.0894,0.0653,0.0261,0.0343,0.0211,0.0029,-0.0047,-0.0136,0.0285,0.0268,0.0269,0.0269,0.0269,0.0269,0.076,0.0828,0.0933,0.1065,0.1201,0.1379,0.1513,0.1693,0.1904,0.2142,0.2139,0.2197,0.1746,0.1146,0.0812,0.0234,0.0215,0.006,-0.0028,-0.0083,-0.0171,0.0244,0.0198,0.0198,0.0198,0.0198,0.0198,0,0.0842,0.092,0.1048,0.1215,0.1376,0.1427,0.167,0.1826,0.2088,0.2291,0.2431,0.2223,0.1685,0.111,0.0329,-0.0052,-0.0218,-0.025,-0.0348,-0.0394,-0.002,-0.0031,-0.0122,-0.0122,-0.0122,-0.0122,-0.0122,-0.0122,0.0897,0.1017,0.1073,0.1331,0.1461,0.1685,0.1828,0.2056,0.2227,0.2477,0.2513,0.2502,0.2071,0.0723,-0.0146,-0.0352,-0.0605,-0.0678,-0.0794,-0.0536,-0.0513,-0.0491,-0.0521,-0.0714,-0.0715,-0.1126,-0.1131,-0.1134]}],[{"header":{"parameterUnit":"m.s-1","parameterCategory":2,"la1":30.2991,"la2":30.254,"lo1":-89.0895,"lo2":-89.0444,"dy":0.0017,"dx":0.0017,"nx":28,"ny":28,"refTime":"2025-04-18T09:00:00:Z","depth":"2","parameterNumber":2,"parameterNumberName":"U-component_of_CURRENTS"},"data":[0,0,0,0,0,0,0,0,0,0,0,0,0,0,0,0,0,0,0,0,0,0,0,0,0,0,0,0,0,0,0,0,0,0,0,0,0,0,0,0,0,0,0,0,0,0,0,0,0,0,0,0,0,0,0,0,0,0,0.2558,0.2559,0,0.2582,0.2582,0.2582,0.2586,0.2586,0.2585,0.2585,0.2595,0.2595,0.2595,0,0,0,0,0,0,0,0,0,0,0,0,0,0.2529,0.253,0.2558,0.2559,0.2559,0.2582,0.2582,0.2582,0.2586,0.2586,0.2585,0.2585,0.2595,0.2595,0.2595,0,0,0,0,0,0,0,0,0,0,0,0,0,0.2545,0.253,0.2558,0.2565,0.2566,0.2582,0.2582,0.2582,0.2586,0.2586,0.2585,0.2585,0.2595,0.2595,0.2596,0.2601,0,0,0.2597,0.2597,0,0,0,0,0,0,0,0,0.2544,0.2546,0.2563,0.2564,0.2565,0.2582,0.2576,0.2589,0.2586,0.2577,0.2585,0.2585,0.259,0.2591,0.2594,0.2602,0.2602,0.2597,0.2597,0.2598,0.2598,0,0,0,0,0,0,0,0.2543,0.2545,0.2566,0.2564,0.2565,0.2571,0.2573,0.2578,0.2582,0.2577,0.2578,0.2583,0.259,0.2594,0.2594,0.2602,0.2597,0.2598,0.2598,0.2598,0.2656,0.2657,0,0,0,0,0,0,0.2542,0.2544,0.2566,0.2567,0.2556,0.2572,0.2574,0.2576,0.2583,0.2584,0.2583,0.2583,0.2593,0.2594,0.2595,0.2631,0.2598,0.2598,0.2598,0.2655,0.2656,0.2658,0,0,0,0,0,0,0.2542,0.2544,0.2565,0.2557,0.2561,0.2572,0.2575,0.2576,0.2587,0.2588,0.2588,0.2593,0.2593,0.2594,0.2612,0.263,0.2598,0.2599,0.2653,0.2655,0.2657,0.2685,0,0,0,0,0,0,0.2541,0.2543,0.2548,0.2557,0.2561,0.258,0.2575,0.2577,0.259,0.2591,0.2596,0.2597,0.2593,0.2611,0.2612,0.263,0.2599,0.2652,0.2654,0.2656,0.2682,0.2687,0.2692,0,0,0,0,0,0.2539,0.2546,0.2548,0.2551,0.2565,0.2581,0.2584,0.259,0.2591,0.2599,0.2607,0.2597,0.2627,0.2612,0.2614,0.2632,0.2651,0.2653,0.2656,0.268,0.2686,0.2692,0,0,0,0,0,0,0.2536,0.2547,0.2549,0.2559,0.2572,0.2582,0.2592,0.2597,0.2609,0.2612,0.2609,0.261,0.2636,0.2632,0.2616,0.2658,0.2639,0.2642,0.2657,0.2662,0.2667,0.2683,0.26,0,0,0,0,0,0.2537,0.2544,0.2557,0.2566,0.2573,0.2584,0.2593,0.26,0.2611,0.2616,0.262,0.2631,0.2648,0.2653,0.2664,0.2682,0.2718,0.2697,0.2702,0.2706,0.2722,0.28,0.2814,0.2667,0.2667,0.2667,0,0,0.2538,0.2546,0.255,0.2566,0.2576,0.2592,0.2589,0.2607,0.2624,0.2616,0.2639,0.2648,0.2658,0.2682,0.2692,0.268,0.2767,0.2709,0.2712,0.2726,0.2804,0.2819,0.2832,0.2669,0.2668,0.2668,0,0,0.2545,0.2551,0.2561,0.2574,0.2595,0.2604,0.2612,0.2628,0.2639,0.2662,0.2667,0.269,0.2703,0.272,0.2729,0.2768,0.2792,0.2769,0.2802,0.2878,0.2891,0.2902,0.2969,0.2987,0.2768,0.2768,0.2768,0,0.2547,0.256,0.2568,0.2584,0.2602,0.2611,0.2634,0.2645,0.2666,0.2694,0.2673,0.2734,0.2725,0.278,0.2784,0.2779,0.2828,0.2775,0.2885,0.2897,0.2909,0.2975,0.2994,0.277,0.277,0.2769,0.2769,0,0.256,0.2576,0.2585,0.2608,0.263,0.265,0.2671,0.2695,0.2708,0.273,0.2788,0.2787,0.2834,0.2823,0.2807,0.2888,0.2898,0.2884,0.287,0.2926,0.2991,0.3011,0.2772,0.2772,0.2771,0.2771,0,0,0.2552,0.2587,0.2591,0.2613,0.2648,0.2668,0.2707,0.2757,0.2808,0.2819,0.2894,0.2896,0.2918,0.2931,0.2926,0.2963,0.3064,0.2955,0.2958,0.3022,0.3244,0.3145,0.3156,0.3078,0.3081,0.3084,0.3257,0,0.2561,0.2597,0.2616,0.2658,0.2683,0.2717,0.2761,0.2811,0.2854,0.2926,0.2948,0.3011,0.2955,0.299,0.3023,0.3072,0.3117,0.3019,0.3181,0.3186,0.3091,0.3176,0.2908,0.303,0.3276,0.3279,0.3281,0,0.2563,0.2595,0.2636,0.2704,0.272,0.2749,0.2846,0.2889,0.2988,0.3033,0.3106,0.3137,0.3212,0.3145,0.3268,0.3217,0.3234,0.3248,0.3256,0.3169,0.3123,0.3015,0.3057,0.3314,0.3311,0.3309,0.3307,0,0.2552,0.2607,0.2644,0.2663,0.2738,0.2777,0.2826,0.2925,0.2991,0.312,0.3194,0.3287,0.3355,0.3404,0.342,0.3373,0.3548,0.3494,0.3422,0.3416,0.3222,0.3191,0.3579,0.3579,0.3579,0.3578,0.3578,0,0.2549,0.2579,0.2642,0.2662,0.273,0.2788,0.2881,0.295,0.3076,0.3174,0.3254,0.3344,0.3424,0.3516,0.3508,0.3541,0.3635,0.3457,0.3464,0.3221,0.3191,0.3453,0.3437,0.3585,0.3583,0.3582,0.3581,0,0.2524,0.2558,0.2608,0.2692,0.272,0.2773,0.2895,0.297,0.3097,0.3234,0.3285,0.3441,0.3559,0.3616,0.3718,0.3656,0.369,0.3664,0.3368,0.3335,0.3486,0.3469,0.3629,0.3627,0.3626,0.3624,0.3623,0,0.2513,0.2536,0.2618,0.2651,0.2685,0.2771,0.2833,0.2962,0.3043,0.3272,0.333,0.3505,0.3572,0.3698,0.3656,0.3671,0.3699,0.3399,0.3233,0.3506,0.3497,0.3482,0.3467,0.2999,0.2993,0.2988,0.2984,0,0.2511,0.2536,0.2583,0.2647,0.2701,0.2763,0.2856,0.2909,0.3074,0.3194,0.3334,0.3413,0.3532,0.3423,0.3446,0.3396,0.3374,0.3294,0.3707,0.3007,0.292,0.2908,0.2913,0.2939,0.2944,0.2947,0.295,0.2951,0.2522,0.254,0.2598,0.265,0.2703,0.2731,0.2761,0.2843,0.2943,0.3041,0.3194,0.3206,0.3231,0.3119,0.3022,0.2945,0.3162,0.2987,0.3,0.3018,0.2894,0.2806,0.2782,0.2786,0.2789,0.2791,0.2794,0,0.2532,0.2554,0.26,0.2651,0.2666,0.2714,0.2765,0.2741,0.2784,0.2851,0.2914,0.2676,0.2617,0.2636,0.2461,0.2441,0.2384,0.2317,0.2224,0.2273,0.2316,0.215,0.1844,0.1841,0.1837,0.1834,0,0,0.2548,0.2567,0.2569,0.2587,0.2624,0.2637,0.2635,0.2575,0.257,0.243,0.2388,0.2533,0.2607,0.2214,0.2151,0.1976,0.2102,0.1888,0.2663,0.2609,0.2646,0.2729,0.2534,0,0,0,0,0]},{"header":{"parameterUnit":"m.s-1","parameterCategory":2,"la1":30.2991,"la2":30.254,"lo1":-89.0895,"lo2":-89.0444,"dy":0.0017,"dx":0.0017,"nx":28,"ny":28,"refTime":"2025-04-18T09:00:00:Z","depth":"2","parameterNumber":3,"parameterNumberName":"V-component_of_CURRENTS"},"data":[0,0,0,0,0,0,0,0,0,0,0,0,0,0,0,0,0,0,0,0,0,0,0,0,0,0,0,0,0,0,0,0,0,0,0,0,0,0,0,0,0,0,0,0,0,0,0,0,0,0,0,0,0,0,0,0,0,0,0.02,0.02,0,0.0178,0.0177,0.0177,0.0156,0.0155,0.0155,0.0155,0.0088,0.0086,0.0084,0,0,0,0,0,0,0,0,0,0,0,0,0,0.018,0.0181,0.02,0.02,0.02,0.0178,0.0177,0.0177,0.0156,0.0155,0.0155,0.0155,0.0088,0.0086,0.0084,0,0,0,0,0,0,0,0,0,0,0,0,0,0.0176,0.0181,0.02,0.0187,0.0186,0.0178,0.0177,0.0177,0.0156,0.0155,0.0155,0.0155,0.0089,0.0086,0.0084,0.0075,0,0,0.0077,0.0076,0,0,0,0,0,0,0,0,0.0176,0.0176,0.0189,0.0188,0.0186,0.017,0.0146,0.0141,0.0156,0.0166,0.0155,0.0155,0.0112,0.0107,0.0103,0.0072,0.0069,0.0076,0.0075,0.0074,0.0073,0,0,0,0,0,0,0,0.0176,0.0177,0.019,0.0189,0.0187,0.0167,0.0167,0.0145,0.0139,0.0165,0.0164,0.0163,0.0111,0.0106,0.0101,0.0068,0.0076,0.0074,0.0073,0.0072,0.0034,0.0035,0,0,0,0,0,0,0.0184,0.0178,0.0191,0.019,0.0181,0.0168,0.0167,0.0175,0.014,0.0136,0.0163,0.0162,0.011,0.0104,0.0099,0.0108,0.0074,0.0072,0.007,0.0034,0.0034,0.0035,0,0,0,0,0,0,0.0184,0.0186,0.0192,0.0183,0.0183,0.0169,0.0177,0.0174,0.0175,0.014,0.0134,0.0167,0.0109,0.0102,0.0092,0.0104,0.0071,0.0068,0.0033,0.0034,0.0035,0.0112,0,0,0,0,0,0,0.0183,0.0186,0.0192,0.0184,0.0184,0.0198,0.0178,0.0174,0.0175,0.0173,0.0141,0.0134,0.0109,0.0096,0.0089,0.01,0.0067,0.0033,0.0034,0.0034,0.0109,0.0115,0.0121,0,0,0,0,0,0.0183,0.0196,0.0192,0.0194,0.0193,0.0199,0.0197,0.0185,0.0175,0.0182,0.0162,0.0135,0.0096,0.0094,0.0087,0.0097,0.0032,0.0033,0.0034,0.0106,0.0114,0.012,0,0,0,0,0,0,0.019,0.0195,0.0191,0.0205,0.0206,0.0196,0.0198,0.0191,0.0181,0.0177,0.0144,0.0136,0.013,0.0103,0.0101,0.0088,0.0058,0.0058,0.0116,0.0122,0.0128,0.014,0.0064,0,0,0,0,0,0.0195,0.0207,0.0207,0.0218,0.0221,0.0211,0.021,0.0205,0.0195,0.019,0.0169,0.0144,0.0127,0.0117,0.0095,0.009,0.0063,0.009,0.0096,0.0102,0.0106,0.0081,0.0086,0.0038,0.0038,0.0038,0,0,0.02,0.0205,0.0211,0.0221,0.0218,0.0234,0.021,0.0216,0.0229,0.0183,0.0191,0.0164,0.013,0.0127,0.0121,0.0107,0.0101,0.0103,0.0108,0.0109,0.0083,0.0088,0.0092,0.0039,0.0039,0.0039,0,0,0.0221,0.0222,0.0241,0.0248,0.0252,0.025,0.0256,0.0252,0.025,0.0253,0.0225,0.0209,0.0182,0.0165,0.0151,0.0174,0.0133,0.0164,0.0206,0.0183,0.0187,0.019,0.0166,0.0166,0.0168,0.0168,0.0169,0,0.0226,0.0254,0.0246,0.0269,0.0282,0.0263,0.0291,0.0287,0.0281,0.0287,0.0264,0.0234,0.02,0.0203,0.0208,0.0189,0.0168,0.0185,0.0192,0.0194,0.0196,0.017,0.0169,0.0172,0.0172,0.0171,0.0171,0,0.0265,0.0287,0.03,0.0325,0.0337,0.0357,0.0357,0.0364,0.0354,0.0351,0.0349,0.0304,0.0288,0.0272,0.0245,0.0247,0.0226,0.0203,0.0178,0.0205,0.0176,0.0174,0.0178,0.0176,0.0175,0.0174,0,0,0.0283,0.0321,0.0326,0.0358,0.0372,0.0394,0.0413,0.0435,0.0467,0.0432,0.0463,0.0412,0.0386,0.0368,0.033,0.0303,0.0293,0.0263,0.026,0.0246,0.0243,0.0195,0.0187,0.0274,0.0274,0.0274,0.022,0,0.0319,0.0381,0.0385,0.0447,0.0485,0.048,0.0513,0.0526,0.0526,0.0549,0.0494,0.0507,0.0425,0.043,0.0384,0.0329,0.029,0.0309,0.0211,0.0208,0.0168,0.0184,0.02,0.015,0.0217,0.0217,0.0217,0,0.0359,0.0402,0.047,0.0536,0.0553,0.0582,0.0642,0.0672,0.0684,0.0687,0.0666,0.0628,0.0589,0.0517,0.0409,0.0427,0.0336,0.0275,0.0271,0.0197,0.0156,0.0131,0.0144,0.0212,0.0213,0.0213,0.0213,0,0.0397,0.0463,0.0525,0.0546,0.0612,0.0643,0.0681,0.0714,0.0772,0.0785,0.0827,0.0748,0.0746,0.0613,0.0464,0.0446,0.0341,0.0302,0.0165,0.0161,0.014,0.0133,0.0212,0.0212,0.0212,0.0212,0.0212,0,0.0442,0.0493,0.0552,0.059,0.0685,0.0708,0.0807,0.0831,0.0895,0.0992,0.0909,0.0954,0.0772,0.0683,0.0513,0.0337,0.0373,0.0174,0.0145,0.0166,0.0163,0.0186,0.0183,0.021,0.0211,0.0211,0.0211,0,0.0477,0.0508,0.0592,0.0672,0.0705,0.0779,0.0904,0.0988,0.1032,0.1154,0.1173,0.1127,0.1013,0.0805,0.0609,0.043,0.0251,0.0172,0.0206,0.018,0.0072,0.0075,0.0023,0.002,0.0019,0.0017,0.0016,0,0.0501,0.0549,0.0656,0.0724,0.0763,0.0876,0.0971,0.105,0.1152,0.1268,0.1338,0.1269,0.122,0.0894,0.0585,0.0279,0.0238,0.0082,0.0034,0.0077,0.0053,0.0059,0.0063,0.004,0.0039,0.0039,0.0038,0,0.0562,0.0594,0.0669,0.0804,0.0908,0.104,0.1173,0.1265,0.1388,0.1497,0.1594,0.156,0.1262,0.0951,0.0527,0.0312,0.0127,0.0054,0.0109,0.0079,0.0087,0.0066,0.0071,0.0031,0.0032,0.0032,0.0032,0.0033,0.0611,0.0672,0.0771,0.0899,0.1029,0.118,0.1289,0.1447,0.1617,0.1758,0.1734,0.1691,0.1343,0.0785,0.0432,0.0069,0.0087,-0.0061,-0.0055,-0.005,-0.0044,-0.0041,-0.012,-0.012,-0.012,-0.012,-0.0121,0,0.0675,0.0746,0.0866,0.1022,0.1161,0.1225,0.1421,0.1534,0.1735,0.1836,0.1892,0.1545,0.1197,0.0809,0.0277,-0.0057,-0.0075,-0.0176,-0.0115,-0.0106,-0.0099,-0.0094,-0.0184,-0.0185,-0.0186,-0.0187,0,0,0.0718,0.0819,0.0871,0.1092,0.1218,0.14,0.1504,0.1695,0.1801,0.1867,0.1846,0.1741,0.1294,0.0886,0.0441,0.0142,0.0089,0.0067,0.0151,0.0285,0.0296,-0.0002,0.0018,0,0,0,0,0]}],[{"header":{"parameterUnit":"m.s-1","parameterCategory":2,"la1":30.2991,"la2":30.254,"lo1":-89.0895,"lo2":-89.0444,"dy":0.0017,"dx":0.0017,"nx":28,"ny":28,"refTime":"2025-04-18T09:00:00:Z","depth":"4","parameterNumber":2,"parameterNumberName":"U-component_of_CURRENTS"},"data":[0,0,0,0,0,0,0,0,0,0,0,0,0,0,0,0,0,0,0,0,0,0,0,0,0,0,0,0,0,0,0,0,0,0,0,0,0,0,0,0,0,0,0,0,0,0,0,0,0,0,0,0,0,0,0,0,0,0,0.161,0.1611,0,0.1668,0.1669,0.1669,0.1726,0.1727,0.1728,0.1729,0.1812,0.1813,0.1815,0,0,0,0,0,0,0,0,0,0,0,0,0,0.155,0.1551,0.161,0.1611,0.1612,0.1668,0.1669,0.1669,0.1726,0.1727,0.1728,0.1729,0.1811,0.1813,0.1815,0,0,0,0,0,0,0,0,0,0,0,0,0,0.1588,0.1551,0.161,0.1648,0.1652,0.1668,0.1669,0.167,0.1726,0.1727,0.1728,0.173,0.1811,0.1813,0.1815,0.1801,0,0,0.1821,0.1822,0,0,0,0,0,0,0,0,0.1585,0.1589,0.1641,0.1645,0.165,0.1693,0.1678,0.1715,0.1726,0.1696,0.1729,0.173,0.1774,0.1779,0.1785,0.1805,0.1809,0.1821,0.1823,0.1824,0.1824,0,0,0,0,0,0,0,0.1583,0.1587,0.1631,0.1642,0.1648,0.1663,0.167,0.1685,0.1726,0.1699,0.1703,0.1712,0.1777,0.1783,0.1787,0.181,0.1821,0.1823,0.1825,0.1825,0.1943,0.1945,0,0,0,0,0,0,0.1577,0.1585,0.163,0.1633,0.1622,0.1663,0.167,0.1676,0.1726,0.1735,0.1711,0.1714,0.1779,0.1785,0.1791,0.1878,0.1824,0.1826,0.1827,0.1941,0.1943,0.1946,0,0,0,0,0,0,0.1575,0.158,0.1627,0.1612,0.1619,0.1663,0.1669,0.1677,0.172,0.1735,0.1744,0.1751,0.178,0.1788,0.1841,0.1878,0.1826,0.1828,0.1939,0.1942,0.1944,0.1989,0,0,0,0,0,0,0.1573,0.1579,0.1599,0.1611,0.162,0.1659,0.1668,0.1677,0.1722,0.1728,0.1771,0.1778,0.1781,0.1838,0.1843,0.188,0.183,0.1937,0.194,0.1944,0.1985,0.1993,0.1999,0,0,0,0,0,0.1571,0.1586,0.1599,0.1606,0.164,0.166,0.1666,0.17,0.1723,0.1744,0.1781,0.1779,0.1865,0.1841,0.1847,0.1885,0.1935,0.1939,0.1943,0.1982,0.1991,0.1999,0,0,0,0,0,0,0.1573,0.1593,0.1609,0.1631,0.1655,0.167,0.1698,0.1719,0.1763,0.1783,0.1797,0.1807,0.1869,0.1872,0.1846,0.1931,0.1902,0.1907,0.1929,0.1938,0.1945,0.1951,0.1832,0,0,0,0,0,0.158,0.16,0.1618,0.1642,0.1656,0.1684,0.1705,0.1728,0.1759,0.1782,0.1812,0.185,0.1883,0.1908,0.1933,0.1976,0.1985,0.2007,0.2014,0.202,0.203,0.2085,0.2097,0.1959,0.1959,0.1959,0,0,0.1589,0.1604,0.1617,0.1645,0.1668,0.1692,0.1701,0.1741,0.1774,0.1782,0.185,0.1877,0.1901,0.1952,0.198,0.1964,0.2063,0.2025,0.203,0.2038,0.209,0.2104,0.2116,0.1962,0.1962,0.1961,0,0,0.1601,0.1629,0.1646,0.1668,0.1708,0.1723,0.1742,0.1779,0.1815,0.1869,0.1891,0.1943,0.199,0.2017,0.2033,0.2097,0.2099,0.2112,0.2154,0.2207,0.2218,0.2229,0.2246,0.2257,0.2116,0.2116,0.2116,0,0.1616,0.1634,0.1656,0.1677,0.1702,0.174,0.1766,0.1802,0.1857,0.1894,0.1903,0.2002,0.202,0.2086,0.211,0.2113,0.2135,0.2115,0.2215,0.2226,0.2236,0.2251,0.2263,0.2118,0.2118,0.2118,0.2118,0,0.1627,0.1658,0.1672,0.171,0.174,0.1771,0.1814,0.1865,0.1913,0.1951,0.2041,0.2073,0.2136,0.2148,0.2148,0.2233,0.2222,0.2216,0.2189,0.2252,0.2264,0.2276,0.2122,0.2121,0.2121,0.212,0,0,0.1617,0.167,0.168,0.17,0.1762,0.1779,0.185,0.1913,0.1969,0.2039,0.2111,0.2177,0.2216,0.2238,0.2256,0.2297,0.2375,0.2294,0.2295,0.2303,0.248,0.2308,0.2304,0.2395,0.2398,0.24,0.2455,0,0.1624,0.1656,0.1691,0.1737,0.1754,0.1819,0.1872,0.1943,0.2014,0.2094,0.2162,0.2236,0.2245,0.2286,0.2337,0.2372,0.2412,0.236,0.2425,0.2426,0.226,0.2314,0.2409,0.2464,0.2466,0.2468,0.247,0,0.1619,0.164,0.168,0.174,0.1757,0.18,0.1898,0.1956,0.2077,0.2137,0.2241,0.2298,0.2395,0.2379,0.2493,0.2466,0.2485,0.2496,0.2499,0.2333,0.2276,0.2393,0.2491,0.2489,0.2488,0.2486,0.2485,0,0.157,0.1632,0.1662,0.1684,0.1759,0.1807,0.1864,0.1977,0.2044,0.2183,0.2252,0.2369,0.2446,0.2505,0.2553,0.2541,0.2645,0.2626,0.2486,0.2473,0.2591,0.258,0.2698,0.2698,0.2698,0.2697,0.2697,0,0.154,0.1568,0.1648,0.1659,0.1712,0.1781,0.187,0.1945,0.2072,0.2154,0.2283,0.2358,0.2488,0.2564,0.2583,0.2568,0.2681,0.25,0.2483,0.2606,0.2596,0.2598,0.2586,0.2699,0.2699,0.2699,0.2698,0,0.1474,0.1529,0.1568,0.1654,0.1688,0.1731,0.1865,0.192,0.2058,0.2173,0.2226,0.2389,0.2482,0.2566,0.2653,0.2591,0.2592,0.2554,0.2671,0.2659,0.2376,0.2366,0.2403,0.2398,0.2393,0.2389,0.2386,0,0.1437,0.1448,0.155,0.158,0.1627,0.171,0.176,0.1898,0.1957,0.2169,0.2198,0.2357,0.2448,0.2429,0.2525,0.2537,0.251,0.2485,0.2435,0.2369,0.235,0.2347,0.2343,0.2379,0.2378,0.2376,0.2375,0,0.1358,0.1414,0.1443,0.1501,0.156,0.1623,0.1708,0.1735,0.1897,0.2055,0.2125,0.2184,0.2278,0.233,0.2353,0.236,0.2486,0.2436,0.2445,0.2398,0.234,0.2325,0.2326,0.2359,0.2361,0.2363,0.2364,0,0.1304,0.1312,0.1359,0.1402,0.1477,0.1499,0.1562,0.162,0.1695,0.1916,0.1938,0.2104,0.2255,0.2239,0.2262,0.2252,0.2223,0.2142,0.2166,0.2185,0.2087,0.198,0.1879,0,0,0,0,0,0.1234,0.1223,0.1251,0.1279,0.1351,0.1384,0.1503,0.1568,0.1731,0.1726,0.1825,0.19,0.1963,0.2041,0.1988,0.2162,0.2222,0.2089,0.2139,0.227,0.2289,0.2194,0,0,0,0,0,0,0.1185,0.1196,0.1202,0.1171,0.1164,0.1211,0.1278,0.1382,0.1383,0.157,0.1609,0.1767,0.1846,0.1965,0.1943,0.1967,0.1955,0.2193,0.2187,0.226,0.2276,0.2291,0.22,0,0,0,0,0]},{"header":{"parameterUnit":"m.s-1","parameterCategory":2,"la1":30.2991,"la2":30.254,"lo1":-89.0895,"lo2":-89.0444,"dy":0.0017,"dx":0.0017,"nx":28,"ny":28,"refTime":"2025-04-18T09:00:00:Z","depth":"4","parameterNumber":3,"parameterNumberName":"V-component_of_CURRENTS"},"data":[0,0,0,0,0,0,0,0,0,0,0,0,0,0,0,0,0,0,0,0,0,0,0,0,0,0,0,0,0,0,0,0,0,0,0,0,0,0,0,0,0,0,0,0,0,0,0,0,0,0,0,0,0,0,0,0,0,0,0.0066,0.0066,0,0.0052,0.0051,0.0051,0.0038,0.0037,0.0037,0.0037,-0.0017,-0.0018,-0.002,0,0,0,0,0,0,0,0,0,0,0,0,0,0.0052,0.0053,0.0066,0.0066,0.0066,0.0052,0.0051,0.0051,0.0038,0.0037,0.0037,0.0037,-0.0017,-0.0018,-0.002,0,0,0,0,0,0,0,0,0,0,0,0,0,0.005,0.0053,0.0066,0.0058,0.0057,0.0052,0.0051,0.0051,0.0038,0.0037,0.0037,0.0037,-0.0016,-0.0018,-0.002,-0.0029,0,0,-0.0026,-0.0027,0,0,0,0,0,0,0,0,0.005,0.005,0.0059,0.0058,0.0057,0.0047,0.0027,0.0023,0.0038,0.0044,0.0037,0.0037,0.0001,-0.0002,-0.0005,-0.0031,-0.0034,-0.0026,-0.0028,-0.0028,-0.0029,0,0,0,0,0,0,0,0.005,0.005,0.006,0.0059,0.0058,0.0045,0.0044,0.0026,0.0023,0.0044,0.0043,0.0042,0.0,-0.0003,-0.0006,-0.0034,-0.0026,-0.0028,-0.0029,-0.003,-0.0062,-0.0061,0,0,0,0,0,0,0.0055,0.0051,0.006,0.0059,0.0054,0.0045,0.0045,0.005,0.0024,0.002,0.0042,0.0042,0.0001,-0.0004,-0.0008,0.0001,-0.0028,-0.003,-0.0031,-0.0062,-0.0062,-0.0061,0,0,0,0,0,0,0.0055,0.0056,0.0061,0.0055,0.0054,0.0046,0.0051,0.005,0.005,0.0023,0.0019,0.0045,0.0,-0.0006,-0.0015,-0.0002,-0.0031,-0.0033,-0.0062,-0.0062,-0.0061,0.0006,0,0,0,0,0,0,0.0054,0.0056,0.006,0.0055,0.0055,0.0065,0.0052,0.0049,0.005,0.0049,0.0024,0.0019,-0.0,-0.0011,-0.0016,-0.0005,-0.0035,-0.0063,-0.0062,-0.0061,0.0003,0.0009,0.0013,0,0,0,0,0,0.0054,0.0062,0.0061,0.0062,0.0062,0.0066,0.0065,0.0057,0.005,0.0055,0.0041,0.002,-0.0011,-0.0012,-0.0019,-0.0008,-0.0063,-0.0062,-0.0062,0.0001,0.0008,0.0013,0,0,0,0,0,0,0.0057,0.0062,0.006,0.0069,0.0071,0.0064,0.0066,0.0061,0.0054,0.0051,0.0026,0.002,0.0015,-0.0007,-0.0008,-0.0016,-0.0042,-0.0042,0.0008,0.0014,0.0019,0.0026,-0.0036,0,0,0,0,0,0.0061,0.0069,0.007,0.0078,0.008,0.0074,0.0074,0.0071,0.0064,0.006,0.0045,0.0026,0.0013,0.0006,-0.0012,-0.0015,-0.0048,-0.0014,-0.0008,-0.0004,-0.0003,-0.0031,-0.0028,-0.0058,-0.0058,-0.0058,0,0,0.0063,0.0067,0.0071,0.0079,0.0078,0.0091,0.0073,0.0078,0.009,0.0054,0.0063,0.0042,0.0015,0.0015,0.001,-0.0001,-0.0015,-0.0003,0.0001,-0.0,-0.003,-0.0027,-0.0024,-0.0058,-0.0058,-0.0058,0,0,0.0076,0.0078,0.009,0.0097,0.0101,0.0102,0.0106,0.0105,0.0106,0.0109,0.0089,0.0078,0.0057,0.0046,0.0037,0.0057,0.0012,0.0048,0.0083,0.0056,0.0058,0.006,0.0015,0.0012,0.0053,0.0053,0.0053,0,0.0078,0.0098,0.0094,0.011,0.0121,0.0111,0.0132,0.0133,0.013,0.0134,0.0119,0.0095,0.0073,0.0076,0.0084,0.0069,0.0038,0.0066,0.0063,0.0064,0.0065,0.0018,0.0014,0.0056,0.0056,0.0056,0.0055,0,0.0103,0.012,0.0129,0.015,0.0161,0.0176,0.0181,0.0188,0.0185,0.0184,0.0182,0.0153,0.014,0.0132,0.0114,0.0113,0.0084,0.0073,0.0051,0.0072,0.0021,0.0015,0.0061,0.006,0.0059,0.0058,0,0,0.011,0.0141,0.0145,0.0167,0.0186,0.0199,0.0221,0.024,0.0257,0.0243,0.0255,0.0234,0.0215,0.0202,0.0177,0.0154,0.013,0.012,0.0117,0.008,0.0054,0.0036,0.0027,0.012,0.012,0.012,0.0014,0,0.0134,0.0175,0.0185,0.0229,0.0254,0.0259,0.0286,0.0299,0.0298,0.0305,0.0276,0.0275,0.0244,0.0238,0.0212,0.0151,0.012,0.0158,0.0034,0.003,0.0016,0.0022,0.0119,0.001,0.0009,0.0008,0.0007,0,0.0158,0.0186,0.0234,0.028,0.0292,0.0316,0.0355,0.0378,0.0383,0.0381,0.0369,0.034,0.0311,0.0277,0.0185,0.021,0.0139,0.0084,0.0079,0.0035,0.0002,-0.0016,-0.0004,-0.0003,-0.0002,-0.0001,-0.0001,0,0.0173,0.0222,0.0264,0.028,0.0328,0.0352,0.0379,0.0401,0.0431,0.0428,0.0436,0.039,0.0369,0.0283,0.017,0.0178,0.0049,0.0045,-0.0044,-0.0048,-0.0029,-0.003,-0.0027,-0.0027,-0.0027,-0.0027,-0.0026,0,0.0199,0.0232,0.0276,0.03,0.0358,0.0382,0.0439,0.0454,0.0482,0.0521,0.048,0.048,0.037,0.0285,0.0178,0.0045,0.0052,-0.0042,-0.0071,-0.0001,0.0003,-0.0034,-0.0034,-0.0031,-0.003,-0.0029,-0.0028,0,0.0209,0.0237,0.0289,0.0345,0.0367,0.041,0.0486,0.0525,0.0547,0.0589,0.0592,0.0543,0.0438,0.0304,0.0149,0.0061,-0.007,-0.0123,-0.0055,-0.0078,-0.0153,-0.0147,-0.0222,-0.0223,-0.0224,-0.0225,-0.0226,0,0.0217,0.0243,0.0317,0.0355,0.0383,0.0452,0.0504,0.0553,0.0593,0.0627,0.0641,0.0563,0.051,0.0279,0.0131,-0.0087,-0.0114,-0.0193,-0.0153,-0.0149,-0.0171,-0.0163,-0.0157,-0.0228,-0.0229,-0.0229,-0.0229,0,0.0227,0.0252,0.0295,0.0371,0.0431,0.051,0.0579,0.0617,0.0678,0.0694,0.0689,0.0588,0.0463,0.0287,0.0107,-0.0045,-0.0143,-0.0206,-0.0204,-0.0167,-0.0158,-0.0176,-0.0168,-0.0233,-0.0233,-0.0232,-0.0232,0,0.0229,0.026,0.0312,0.0386,0.0465,0.0546,0.0588,0.0642,0.0689,0.0727,0.0718,0.0603,0.0537,0.0306,0.0143,-0.0013,-0.0041,-0.0086,-0.009,-0.0088,-0.0015,0.0018,-0.0029,0,0,0,0,0,0.0229,0.0264,0.0323,0.0411,0.0492,0.0545,0.063,0.0667,0.0724,0.073,0.0733,0.0623,0.0414,0.0319,0.0163,0.0102,-0.0089,-0.009,-0.0148,-0.0257,-0.0252,-0.0191,0,0,0,0,0,0,0.0228,0.0275,0.0315,0.0419,0.0487,0.0582,0.0644,0.0682,0.0686,0.0718,0.0607,0.0579,0.0364,0.0507,0.0161,0.0114,0.0053,-0.0183,-0.0187,-0.0259,-0.0255,-0.0251,-0.0187,0,0,0,0,0]}]]